TimeEST,TemperatureF,Dew PointF,Humidity,Sea Level PressureIn,VisibilityMPH,Wind Direction,Wind SpeedMPH,Gust SpeedMPH,PrecipitationIn,Events,Conditions,WindDirDegrees,DateUTC
12:51 AM,18.0,5.0,57,29.86,10.0,NW,16.1,28.8,N/A,,Clear,320,2012-12-31 05:51:00
1:51 AM,19.0,5.0,54,29.88,10.0,NW,21.9,26.5,N/A,,Clear,310,2012-12-31 06:51:00
2:51 AM,19.9,6.1,55,29.88,10.0,NW,15.0,28.8,N/A,,Clear,310,2012-12-31 07:51:00
3:51 AM,21.0,6.1,53,29.88,10.0,WNW,6.9,18.4,N/A,,Clear,300,2012-12-31 08:51:00
4:51 AM,21.0,7.0,55,29.90,10.0,WNW,4.6,-,N/A,,Clear,290,2012-12-31 09:51:00
6:51 AM,21.0,10.9,65,29.91,10.0,West,6.9,-,N/A,,Clear,280,2012-12-31 11:51:00
7:51 AM,21.0,12.0,68,29.91,10.0,West,6.9,-,N/A,,Clear,270,2012-12-31 12:51:00
8:51 AM,24.1,14.0,65,29.92,10.0,Variable,3.5,-,N/A,,Clear,0,2012-12-31 13:51:00
9:51 AM,26.1,15.1,63,29.93,10.0,Calm,Calm,-,N/A,,Scattered Clouds,0,2012-12-31 14:51:00
10:51 AM,28.0,16.0,61,29.91,10.0,Variable,5.8,-,N/A,,Overcast,0,2012-12-31 15:51:00
11:51 AM,30.0,16.0,56,29.88,10.0,WNW,9.2,16.1,N/A,,Scattered Clouds,290,2012-12-31 16:51:00
12:51 PM,32.0,17.1,54,29.86,10.0,West,8.1,-,N/A,,Overcast,280,2012-12-31 17:51:00
1:51 PM,33.1,18.0,54,29.84,10.0,Variable,6.9,-,N/A,,Overcast,0,2012-12-31 18:51:00
2:51 PM,32.0,19.0,59,29.83,10.0,Variable,5.8,-,N/A,,Overcast,0,2012-12-31 19:51:00
3:51 PM,32.0,21.0,64,29.84,10.0,Variable,3.5,-,N/A,,Overcast,0,2012-12-31 20:51:00
4:51 PM,32.0,21.0,64,29.83,10.0,Variable,3.5,-,N/A,,Overcast,0,2012-12-31 21:51:00
5:51 PM,30.9,21.9,69,29.80,10.0,Variable,3.5,-,N/A,,Mostly Cloudy,0,2012-12-31 22:51:00
6:51 PM,30.0,21.9,72,29.80,10.0,Calm,Calm,-,N/A,,Overcast,0,2012-12-31 23:51:00
7:02 PM,30.2,21.2,69,29.79,10.0,Calm,Calm,-,N/A,,Overcast,0,2013-01-01 00:02:00
7:43 PM,30.2,21.2,69,29.79,10.0,Calm,Calm,-,N/A,,Scattered Clouds,0,2013-01-01 00:43:00
7:51 PM,30.0,21.9,72,29.79,10.0,Calm,Calm,-,N/A,,Partly Cloudy,0,2013-01-01 00:51:00
8:51 PM,30.0,21.0,69,29.76,10.0,Calm,Calm,-,N/A,,Clear,0,2013-01-01 01:51:00
9:51 PM,28.9,21.0,72,29.75,10.0,Calm,Calm,-,N/A,,Clear,0,2013-01-01 02:51:00
10:51 PM,28.9,21.0,72,29.72,10.0,Calm,Calm,-,N/A,,Mostly Cloudy,0,2013-01-01 03:51:00
11:51 PM,28.9,21.0,72,29.70,10.0,Calm,Calm,-,N/A,,Overcast,0,2013-01-01 04:51:00